Regional Weather Roundup
Issued by NWS

Home | Current Version | Previous Version | Text Only | Print | Product List | Glossary On
Versions: 1 2 3 4 5 6 7 8 9 10 11 12 13 14 15 16 17 18 19 20 21 22 23 24 25 26 27 28 29 30 31 32 33 34 35 36 37 38 39 40 41 42 43 44 45 46 47 48 49 50
000
ASUS46 KLOX 210112
RWRCA

SOUTHERN CALIFORNIA WEATHER ROUNDUP
NATIONAL WEATHER SERVICE OXNARD CALIFORNIA
600 PM PDT MON OCT 20 2014

NOTE: "FAIR" INDICATES FEW OR NO CLOUDS BELOW 12,000 FEET WITH NO
SIGNIFICANT WEATHER AND/OR OBSTRUCTIONS TO VISIBILITY.

  -  STATIONS PRECEEDED BY AN ASTERISK (*) ARE NOT NWS OR FAA
     STATIONS AND ARE NOT SUBJECT TO NWS AND FAA QUALITY CONTROL.

CAZ041-042-087-210200-
LA AND ORANGE COUNTY COASTAL AREAS


CITY           SKY/WX    TMP DP  RH WIND       PRES   REMARKS
L.A. DOWNTOWN  CLEAR     70  60  70 W5        29.86S
L.A. AIRPORT   PTCLDY    68  62  81 W12       29.87S
LONG BEACH     CLEAR     71  61  70 W9        29.86S

CITY           SKY/WX    TMP DP  RH WIND       PRES   REMARKS
AVALON           N/A     68 N/A N/A MISG        N/A
FULLERTON      CLEAR     72  60  66 SW5       29.85S
*GETTY CENTER    N/A     64  59  82 SW6         N/A
HAWTHORNE      CLEAR     70  61  73 SW10      29.87S
*LEO CARRILLO    N/A     69  61  75 W8G22       N/A
*LOS ALAMITOS  FAIR      70  62  75 SW8       29.86S
*REDONDO BEACH   N/A     68  61  77 CALM      29.86S
SANTA ANA      PTCLDY    72  61  68 SW6       29.86F
STA MONICA APT CLEAR     69  60  73 SW7       29.87S
*STA MON PIER    N/A     68  64  86 S14       29.86S
TORRANCE       PTCLDY    70  63  78 W12       29.88S
*UCLA            N/A     68  59  73 SW5       29.85R

$$

CAZ547-548-048-210200-
LA COUNTY VALLEYS AND INLAND EMPIRE


CITY           SKY/WX    TMP DP  RH WIND       PRES   REMARKS
BURBANK        CLEAR     71  59  65 S7        29.86S
VAN NUYS       FAIR      75  59  57 S7        29.86R

CITY           SKY/WX    TMP DP  RH WIND       PRES   REMARKS
CORONA AIRPORT CLEAR     73  60  63 W7        29.86S
*CHATSWORTH      N/A     73  60  65 W3        29.83R
CHINO          PTCLDY    73  60  63 SW12      29.86F
*NORTHRIDGE      N/A     73  55  53 W3          N/A
ONTARIO        PTCLDY    75  59  57 SW10      29.86S
*PASADENA        N/A     72  63  73 E2          N/A
RIVERSIDE      PTCLDY    75  58  55 W7        29.86S
SAN BERNARDINO PTCLDY    77  48  36 W8        29.87S
*SAN GABRIEL     N/A     73  58  60 CALM      29.81F
*SAN RAFAEL HI   N/A     68  55  64 E7          N/A
*SAUGUS          N/A     72  57  60 W7          N/A
*WHITEMAN AP   CLEAR     75  57  53 SE5       29.89S
*WHITTIER HILL   N/A     70  64  81 SW8         N/A
*WOODLAND HILL   N/A     73  57  56 W5          N/A

$$

CAZ054-055-210200-
LA AND SAN BERNARDINO COUNTY MOUNTAINS


CITY           SKY/WX    TMP DP  RH WIND       PRES   REMARKS
*ACTON           N/A     79  39  24 SW7G20      N/A
*BIG BEAR AIRP PTCLDY    55  32  41 W9        30.12S
*BIG PINES       N/A     55  39  55 S2          N/A
*CHILAO          N/A     65  41  41 SW9         N/A
MT WILSON NWS    N/A     64  41  42 SW7         N/A
SANDBERG       CLEAR     64  36  35 NW15      30.02S
*WARM SPRINGS    N/A     64  47  54 CALM        N/A

$$

CAZ028-029-059-060-099-210200-
ANTELOPE VALLEY AND SURROUNDING AREAS


CITY           SKY/WX    TMP DP  RH WIND       PRES   REMARKS
LANCASTER      PTCLDY    73  46  38 W21       29.89R
PALMDALE       PTCLDY    75  44  33 SW18      29.89S
*POPPY PARK      N/A     73  37  27 SW12G29     N/A

CITY           SKY/WX    TMP DP  RH WIND       PRES   REMARKS
29 PALMS       PTCLDY    83  44  25 SW14      29.90S
BARSTOW/DAGGET CLEAR     86  31  13 SW15      29.82S
BISHOP         CLEAR     74  16  11 S7        29.82R
CHINA LAKE     MOCLDY    82  34  17 SW10G24   29.81S
EDWARDS AFB    MOCLDY    77  45  32 SW17G26   29.85S
MOJAVE         FAIR      72  41  33 W22       29.90R
NEEDLES        CLEAR     90  41  18 SW6       29.78S
VICTORVILLE    PTCLDY    75  39  27 S16       29.90S

$$

CAZ039-040-210200-
VENTURA AND SANTA BARBARA COUNTY COAST


CITY           SKY/WX    TMP DP  RH WIND       PRES   REMARKS
CAMARILLO      PTCLDY    69  60  73 SW5       29.87S
NWS OXNARD       N/A     69  60  75 CALM      29.88R
OXNARD AIRPORT PTCLDY    69  61  75 W6        29.86F
*POINT MUGU    PTCLDY    71  62  73 W6        29.87F
SBA APT/GOLETA PTCLDY    72  60  66 S5        29.85F
*SANTA BARBARA   N/A     74  60  61 CALM      29.93S
*VENTURA         N/A     69  60  73 CALM      29.90S

$$

CAZ044-045-210200-
VENTURA COUNTY VALLEYS


CITY           SKY/WX    TMP DP  RH WIND       PRES   REMARKS
*SIMI VALLEY     N/A     68  60  76 CALM      29.85R
*OJAI            N/A     71  59  66 CALM      29.83R
*FILLMORE        N/A     72  60  65 CALM      29.78R

$$

CAZ053-210200-
VENTURA COUNTY MOUNTAINS


CITY           SKY/WX    TMP DP  RH WIND       PRES   REMARKS
*LOCKWOOD VLY    N/A    N/A N/A N/A MISG        N/A
*ROSE VALLEY     N/A     66  55  68 MISG        N/A

$$

CAZ034-035-036-210200-
CENTRAL COAST AND SANTA YNEZ VALLEY


CITY           SKY/WX    TMP DP  RH WIND       PRES   REMARKS
SAN LUIS OBISP MOCLDY    65  59  81 NW18      29.93S
SANTA MARIA    PTCLDY    68  59  73 NW15      29.94R

CITY           SKY/WX    TMP DP  RH WIND       PRES   REMARKS
*CAL POLY SLO    N/A     68  61  77 W6          N/A
*LOMPOC        CLOUDY    66  57  72 NW14G22   29.95R
*PISMO BEACH     N/A     69  61  76 N1        29.94R
*SANTA YNEZ    FAIR      68  54  60 NW10G17   29.93R

$$

CAZ037-038-051-210200-
SAN LUIS OBISPO COUNTY INTERIOR AND CUYAMA VALLEY


CITY           SKY/WX    TMP DP  RH WIND       PRES   REMARKS
*CUYAMA          N/A     72  50  45 NW1       29.86R
PASO ROBLES    CLEAR     72  56  57 SW9       29.92R

$$

CAZ032-033-061-210200-
SOUTHERN DESERTS


CITY           SKY/WX    TMP DP  RH WIND       PRES   REMARKS
BLYTHE         CLEAR     90  45  21 CALM      29.75F
IMPERIAL       CLEAR     91  50  24 E3        29.72F
PALM SPRINGS   CLEAR     89  49  25 S3        29.78S
THERMAL        CLEAR     85  54  34 SE3       29.72S

$$

ELSEWHERE ACROSS THE WESTERN UNITED STATES AND MEXICO


CITY           SKY/WX    TMP DP  RH WIND       PRES   REMARKS
DENVER, CO     PTCLDY    62  33  33 S13       30.07R
GRAND CANYON,  PTCLDY    57  39  51 E6        30.13S
HONOLULU, HI   MOSUNNY   84  70  61 NE14      29.93F
KAHULUI, MAUI  MOSUNNY   86  70  58 E17G26    29.92F HX  90
LAKE TAHOE, CA PTCLDY    54  35  48 S17G31    29.97R
LAS VEGAS, NV  PTCLDY    85  43  22 S9        29.78S
MAMMOTH LAKES, FAIR      59  23  25 S7G25     30.02F
MEXICO CITY, M CLOUDY    61  54  77 N7        30.17R
PHOENIX, AZ    PTCLDY    86  48  26 CALM      29.79S
PORTLAND, OR   LGT RAIN  59  56  89 S9        29.80S
RENO, NV       PTCLDY    64  33  31 SW17G28   29.86S
SALT LAKE CITY PTCLDY    68  39  34 W5        29.90F
SAN DIEGO, CA  PTCLDY    70  60  70 NW8       29.89S
SAN FRANCISCO, PTCLDY    69  56  62 W10       29.98R
SAN JOSE, CA   PTCLDY    64  54  69 VRB3      29.98S
SEATTLE, WA    PTCLDY    59  53  80 S10       29.77S
TIJUANA, MEX   PTCLDY    68  57  68 NW9       29.90S

$$

STATION/POSITION TIME  TEMP    WIND        PRES    VSBY  WAVE
                       AIR SEA DIR/SP/G                  HT/PER
                 (UTC) (F)     (DEG/KT/KT) (MB)    (MI)  (FT/S)
POINT ARGUELLO B NOT AVBL
WEST SANTA BARBA 0100   66 68  320/ 23/ 27 1011.7F         8/17
POINT CONCEPTION NOT AVBL
EAST SANTA BARBA 0000   68     280/ 16       N/A
SANTA MONICA BAY 0100   67 72  290/ 10/ 12 1011.3F         4/ 9



USA.gov is the U.S. government's official web portal to all federal, state and local government web resources and services.